Location: Los Gatos B&B
(42.6926°N, 77.0646°W)
Time: 11:40:38
(UTC-04:00)

Daily predictions for brighter satellites

Satellite Brightness Start Highest point End
(mag) Time Altitude Azimuth Time Altitude Azimuth Time Altitude Azimuth
Cosmos 1812 Rocket 3.6 19:20:48 10° S 19:25:08 85° W 19:29:31 10° N
Aureole 2 Rocket 3.7 19:21:56 10° SSE 19:25:51 32° ESE 19:29:43 10° NE
Cosmos 1624 Rocket 4.1 19:22:02 10° NNW 19:27:14 61° ENE 19:32:21 10° SSE
COSMOS 2455 4.1 19:24:35 10° SW 19:30:18 44° NW 19:36:03 10° NNE
ATLAS CENTAUR R/B 3.8 19:27:42 10° S 19:32:23 47° ESE 19:45:56 10° NE
Meteor 1-22 Rocket 4.2 19:29:51 10° S 19:35:04 54° E 19:40:13 10° NNE
Cosmos 921 Rocket 4.3 19:32:03 10° NNW 19:36:04 44° WSW 19:40:02 10° S
Cosmos 2219 Rocket 3.3 19:32:02 10° SW 19:37:28 49° WNW 19:42:58 10° NNE
USA 215 3.4 19:31:54 10° NE 19:38:21 59° SE 19:44:46 10° SSW
Cosmos 2233 Rocket 4.2 19:32:27 10° S 19:38:45 83° W 19:45:08 10° N
Cosmos 1441 Rocket 3.8 19:35:31 10° NNW 19:39:13 61° W 19:42:53 10° S
HJ-1C 3.9 19:36:23 10° SE 19:39:30 37° ENE 19:42:39 10° N
H-2A R/B 4.4 19:37:12 10° ESE 19:39:48 17° ENE 19:42:23 10° NNE
Cosmos 2278 Rocket 2.8 19:34:38 10° NNW 19:40:14 63° WSW 19:45:47 10° S
Meteor 2-5 Rocket 4.2 19:35:36 10° NNW 19:41:12 65° W 19:46:41 10° S
Meteor 1-29 3.9 19:40:04 10° NE 19:43:07 27° E 19:46:10 10° SSE
TIMED 4.5 19:39:21 10° NNW 19:43:45 78° ENE 19:48:07 10° SSE
Cosmos 2297 3.7 19:38:14 10° NNW 19:43:55 71° ENE 19:49:32 10° SSE
METEOR-M 4.2 19:39:31 10° SSE 19:44:47 61° ENE 19:50:03 10° N
Meteor 1-24 Rocket 3.7 19:40:07 10° N 19:45:50 80° E 19:51:19 10° SSE
Meteor 1-28 Rocket 3.1 19:42:18 10° NNE 19:46:02 74° E 19:49:44 10° S
Cosmos 1378 3.1 19:43:39 10° N 19:47:22 60° E 19:51:02 10° SSE
Cosmos 1607 4.5 19:43:19 10° SW 19:49:26 63° NW 19:55:33 10° NNE
Cosmos 1707 3.7 19:46:15 10° NNW 19:50:00 51° W 19:53:43 10° S
FENGYUN 3A 4.2 19:46:18 10° SE 19:51:09 36° ENE 19:56:02 10° N
Cosmos 1076 Rocket 3.7 19:47:15 10° N 19:51:27 48° ENE 19:55:39 10° SSE
SJ-6B 3.1 19:48:00 10° S 19:51:57 73° WSW 19:56:00 10° NNW
Cosmos-2242 3.8 19:52:10 10° SSE 19:55:58 30° E 19:59:50 10° NNE
Cosmos 1452 Rocket 3.9 19:51:24 10° N 19:56:27 44° ENE 20:01:26 10° SE
ATLAS 3B R/B 4.2 19:49:51 10° WSW 19:56:56 41° NW 20:03:50 10° NNE
Cosmos 2369 Rocket 3.8 19:55:46 10° N 19:59:26 17° NE 20:01:48 14° ENE
Cosmos 1758 3.9 19:55:59 10° SSE 19:59:42 36° E 20:03:29 10° NNE
Helios 1B rocket 2.4 19:55:45 10° NNE 19:59:49 58° E 20:03:52 10° S
Cosmos 192 4.4 19:56:22 10° S 20:01:12 56° ESE 20:06:04 10° NNE
Cosmos 1603 4.4 19:57:51 10° SSE 20:02:44 30° ESE 20:07:39 10° NE
SeaSat 1 3.4 19:58:59 10° NE 20:03:00 25° ESE 20:07:00 10° SSE
Cosmos 1408 Rocket 3.5 20:00:21 10° N 20:04:41 60° E 20:08:57 10° SSE
Resurs 01 Rocket 1.6 20:04:49 10° SSE 20:09:17 89° W 20:13:46 10° NNW
Cosmos 1943 Rocket 4.3 20:09:43 10° NNE 20:10:42 10° NE 20:11:41 10° NE
NOSS 3-2 (A) 3.4 20:05:47 10° SSW 20:11:50 78° ESE 20:18:28 10° NE
FengYun 1-2 T 4.1 20:06:56 10° SSE 20:12:26 75° ENE 20:17:56 10° N
Cosmos 2333 Rocket 3.9 20:07:28 10° WSW 20:12:43 36° NW 20:18:01 10° N
Resurs 1-3 3.5 20:08:57 10° SSE 20:13:19 79° ENE 20:17:44 10° N
CZ-4B DEB 2.9 20:15:36 22° SE 20:17:26 54° ENE 20:20:39 10° N
Atlas Centaur 2 4.3 20:16:42 10° WSW 20:23:35 28° SSW 20:28:59 14° SE
ATLAS CENTAUR R/B 3.2 20:20:16 10° NW 20:23:54 29° WSW 20:27:17 10° S
Meteor 1-21 Rocket 4.1 20:19:54 10° N 20:25:28 67° ENE 20:30:58 10° SSE
ALOS 2.2 20:26:25 10° SSE 20:31:04 83° ENE 20:35:46 10° N
Cosmos 1743 Rocket 3.6 20:27:02 10° N 20:31:26 55° E 20:33:29 29° SE
In-Cosmos 22 4.3 20:26:08 10° NNW 20:31:56 82° W 20:37:41 10° S
Cosmos 1674 3.3 20:28:51 10° N 20:32:23 37° ENE 20:32:23 37° ENE
Nadezhda 4 Rocket 3.9 20:26:17 10° N 20:32:33 66° E 20:38:44 10° SSE
Cosmos 1269 Rocket 4.3 20:28:49 10° S 20:33:48 44° ESE 20:38:47 10° NNE
Cosmos 1092 Rocket 4.1 20:31:25 10° N 20:37:29 52° ENE 20:40:56 25° SE
Spot 2 Rocket 4.5 20:34:15 10° S 20:39:06 47° W 20:43:58 10° NNW
GP-B 3.7 20:35:27 10° NNE 20:39:11 36° ENE 20:39:11 36° ENE
Cosmos 1048 Rocket 4.3 20:35:43 10° S 20:40:42 43° ESE 20:45:40 10° NNE
Cosmos 2237 Rocket 4.4 20:36:36 10° WSW 20:41:19 26° NW 20:46:02 10° N
OAO 3 Rocket 4.1 20:41:10 10° WSW 20:45:27 33° S 20:46:04 31° SSE
Helios 1A 4.5 20:43:21 10° SSW 20:47:13 36° W 20:51:07 10° NNW
NOSS 3-2 (C) 3.6 20:42:44 10° SW 20:48:50 77° NW 20:55:33 10° NE
Envisat 3.7 20:50:02 35° ENE 20:50:02 35° ENE 20:54:29 10° N
CZ-4C R/B 4.1 20:45:55 10° W 20:50:40 28° NW 20:55:58 10° NNE
ASTEX 1 3.3 20:46:41 10° N 20:51:39 90° ESE 20:56:32 10° S
CENTAUR R/B 3.8 20:46:58 10° S 21:00:34 - NE 20:48:51 19° SSE
Cosmos 1634 Rocket 4.1 20:49:16 27° SSE 20:52:23 49° E 20:58:21 10° NNE
ATLAS 5 CENTAUR R/B 1.9 20:48:09 10° SW 20:52:56 81° NW 20:58:11 10° NE
CZ-2D R/B 3.6 20:52:08 29° S 20:54:01 64° W 20:57:53 10° NNW
Cosmos 2026 Rocket 4.3 20:48:34 10° N 20:54:14 39° ENE 20:54:39 39° E
Cosmos 1953 3.3 20:51:24 10° SSW 20:55:16 47° WNW 20:59:08 10° N
SL-16 R/B 3.6 20:54:21 10° SW 20:59:39 39° WNW 21:04:59 10° N
H-2A R/B 4.0 21:14:40 20° NNE 21:14:40 20° NNE 21:16:21 10° N
SJ-11-01 4.2 21:14:09 72° NNE 21:14:09 72° NNE 21:18:30 10° N
H-2A R/B 4.2 21:12:11 25° SW 21:13:49 37° W 21:17:29 10° NNW
Cosmos 724 4.4 21:09:30 10° SW 21:15:25 75° NW 21:21:33 10° NNE
Cosmos 2195 Rocket 4.4 21:09:27 10° N 21:15:45 67° E 21:16:42 59° SE
USA 215 4.0 21:15:01 10° NE 21:21:15 49° NNW 21:27:28 10° W
ERS-1 Rocket 3.1 21:34:40 70° NW 21:34:40 70° NW 21:39:12 10° NNW
Cosmos 1627 Rocket 4.4 21:30:09 10° N 21:36:22 87° W 21:36:58 75° S
SeaSat 1 3.4 21:35:58 10° NNE 21:40:41 46° WNW 21:45:23 10° SW
Cosmos 2369 Rocket 2.3 21:38:32 10° NNW 21:43:36 72° NW 21:43:36 72° NW
Cosmos 839 Rocket 4.1 21:41:17 10° NNW 21:49:04 87° WSW 21:49:20 84° S
Cosmos 1943 Rocket 3.2 21:50:18 10° NNW 21:53:53 37° N 21:53:53 37° N
Cosmos 1655 Rocket 4.5 22:06:59 10° NNW 22:12:38 56° WNW 22:12:38 56° WNW
H-2A R/B 4.4 22:24:26 15° N 22:24:26 15° N 22:25:20 10° N
ATLAS 5 CENTAUR R/B 4.5 22:35:11 10° WNW 22:38:34 18° NNW 22:41:49 11° N
